Regional Weather Roundup
Issued by NWS

Home | Current Version | Previous Version | Text Only | Print | Product List | Glossary Off
Versions: 1 2 3 4 5 6 7 8 9 10 11 12 13 14 15 16 17 18 19 20 21 22 23 24 25 26 27 28 29 30 31 32 33 34 35 36 37 38 39 40 41 42 43 44 45 46 47 48 49 50

000
ASUS43 KBIS 111102
RWRND

NORTH DAKOTA REGIONAL WEATHER ROUNDUP
NATIONAL WEATHER SERVICE BISMARCK ND
500 AM CST SUN DEC 11 2016

NOTE: "FAIR" INDICATES FEW OR NO CLOUDS BELOW 12,000 FEET WITH NO
SIGNIFICANT WEATHER AND/OR OBSTRUCTIONS TO VISIBILITY.


NDZ001>003-009>011-017-111200-
NORTHWEST NORTH DAKOTA

CITY           SKY/WX    TMP DP  RH WIND       PRES   REMARKS
WILLISTON      CLOUDY     0  -6  76 NE5       29.96S WCI -10
MINOT          LGT SNOW  -2  -6  83 NE5       29.98S FOG     WCI -12
MINOT AFB      LGT SNOW  -4  -8  81 NE7       29.99S WCI -17
$$

NDZ018>021-031>035-040>046-111200-
SOUTHWEST NORTH DAKOTA

CITY           SKY/WX    TMP DP  RH WIND       PRES   REMARKS
BISMARCK       FLURRIES   0  -4  83 E6        29.97S WCI -12
DICKINSON      CLOUDY     2  -1  88 SW5       29.82F FOG     WCI  -8
GARRISON         N/A     -3  -7  82 E8        29.94S WCI -18
HETTINGER ARPT CLOUDY     3  -2  79 W3        29.85F
$$

NDZ004>008-012>016-024-026-027-054-111200-
NORTHEAST NORTH DAKOTA

CITY           SKY/WX    TMP DP  RH WIND       PRES   REMARKS
GRAND FORKS    CLOUDY     2  -4  76 NE8       30.09F WCI -12
GRND FRKS AFB  LGT SNOW  -1  -5  80 NE8       30.08F WCI -15
DEVILS LAKE    LGT SNOW   0  -5  79 E12       30.00F WCI -17
$$

NDZ022-023-025-028>030-036>039-047>053-111200-
SOUTHEAST NORTH DAKOTA

CITY           SKY/WX    TMP DP  RH WIND       PRES   REMARKS
FARGO          LGT SNOW  10   5  80 NE7       30.03S VSB 1   WCI  -1
JAMESTOWN      LGT SNOW   1  -4  79 E7        29.97S WCI -12
$$





USA.gov is the U.S. government's official web portal to all federal, state and local government web resources and services.